FW1987 Weather Reports


time (UTC)temp
C
wind
direction
speed
KPH
gust
KPH
rain 1hr
cm
rain 24hr
cm
rain mn
cm
humidity
%
barometer
mb
20260506184524 16 143 0.0 0.0 0.00 0.94 0.94 91 1008.3
20260506183042 16 143 0.0 0.0 0.00 0.94 0.94 90 1008.1
20260506181620 16 103 0.0 0.0 0.00 0.94 0.94 90 1007.8
20260506180026 17 103 0.0 0.0 0.00 0.94 0.94 90 1007.9
20260506174528 17 103 0.0 1.6 0.00 0.97 0.94 90 1007.9
20260506173116 17 199 0.0 0.0 0.00 0.97 0.94 89 1007.6
20260506171524 17 199 0.0 0.0 0.00 0.97 0.94 90 1007.6
20260506170044 17 199 0.0 0.0 0.00 0.97 0.94 89 1007.5
20260506164516 17 215 0.0 0.0 0.00 0.97 0.94 88 1007.6
20260506163050 17 207 0.0 1.6 0.00 0.97 0.94 87 1007.6
20260506161502 17 208 0.0 0.0 0.00 0.97 0.94 87 1007.7
20260506160052 17 207 0.0 0.0 0.00 0.97 0.94 85 1007.7
20260506154514 17 215 0.0 0.0 0.00 0.97 0.94 86 1007.8
20260506153029 17 215 0.0 0.0 0.00 0.97 0.94 86 1007.7
20260506151546 18 215 0.0 0.0 0.00 0.97 0.94 89 1007.7
20260506150029 17 215 0.0 1.6 0.00 0.97 0.94 89 1007.7
20260506144550 17 232 0.0 0.0 0.00 0.97 0.94 91 1007.8
20260506143019 17 196 0.0 0.0 0.00 0.97 0.94 92 1007.9
20260506141542 17 195 0.0 1.6 0.00 0.97 0.94 94 1007.9
20260506140100 16 194 0.0 0.0 0.05 0.97 0.94 94 1007.9
20260506134522 16 194 0.0 1.6 0.18 0.97 0.94 95 1007.9
20260506133037 16 173 0.0 0.0 0.25 0.97 0.94 95 1008.1
20260506131558 16 175 0.0 0.0 0.36 0.97 0.94 95 1008.4
20260506130014 16 175 0.0 0.0 0.84 0.91 0.89 94 1008.5
20260506124527 16 65 0.0 1.6 0.71 0.79 0.76 93 1008.6
20260506123044 16 222 0.0 0.0 0.61 0.71 0.69 92 1008.5
20260506121559 16 238 0.0 0.0 0.51 0.61 0.58 90 1008.5
20260506120016 17 213 0.0 0.0 0.00 0.08 0.05 86 1008.6
20260506114526 17 213 0.0 8.0 0.00 0.08 0.05 86 1008.7
20260506113040 17 214 0.0 4.8 0.00 0.08 0.05 86 1008.9
20260506111503 16 233 0.0 4.8 0.00 0.08 0.05 87 1009.1
20260506110018 16 234 0.0 0.0 0.00 0.08 0.05 86 1009.1
20260506104536 16 232 0.0 0.0 0.00 0.10 0.05 88 1009.3
20260506103002 16 226 0.0 8.0 0.00 0.10 0.05 90 1009.4
20260506101523 16 232 1.6 9.7 0.00 0.10 0.05 90 1009.6
20260506100036 16 199 0.0 0.0 0.00 0.10 0.05 91 1009.6
20260506094620 16 124 0.0 0.0 0.00 0.15 0.05 91 1009.6
20260506093101 16 0.0 0.0 0.00 0.15 0.05 90 1009.6
20260506091516 16 124 0.0 0.0 0.00 0.15 0.05 90 1009.6
20260506090033 16 124 0.0 0.0 0.00 0.15 0.05 92 1009.5
20260506084549 15 124 0.0 0.0 0.00 0.15 0.05 93 1009.4
20260506083005 15 124 0.0 0.0 0.00 0.15 0.05 93 1009.2
20260506081522 15 113 0.0 0.0 0.00 0.15 0.05 94 1009.3
20260506073121 14 109 0.0 0.0 0.00 0.15 0.05 95 1009.4
20260506071557 14 114 0.0 0.0 0.00 0.15 0.05 95 1009.4
20260506061517 13 114 0.0 0.0 0.03 0.15 0.05 95 1009.3
20260506044615 12 114 0.0 0.0 0.03 0.13 0.05 95 1009.6
20260506043021 12 114 0.0 0.0 0.05 0.13 0.05 95 1009.5
20260506041541 12 120 0.0 0.0 0.05 0.13 0.05 95 1009.4
20260506040059 12 120 0.0 0.0 0.05 0.13 0.05 95 1009.3
20260506034525 12 120 0.0 0.0 0.03 0.10 0.03 95 1009.4
20260506033041 12 120 0.0 0.0 0.00 0.08 0.00 95 1009.6
20260506031559 12 119 0.0 0.0 0.00 0.08 0.00 95 1009.9
20260506030020 12 120 0.0 0.0 0.00 0.08 0.00 95 1009.8
20260506024541 12 119 0.0 0.0 0.00 0.08 0.00 95 1009.9
20260506023047 12 119 0.0 0.0 0.00 0.08 0.00 95 1010.2
20260506021522 12 120 0.0 0.0 0.00 0.08 0.00 94 1010.1
20260506020039 12 120 0.0 0.0 0.00 0.08 0.00 94 1010.2
20260506014558 12 119 0.0 0.0 0.00 0.08 0.00 94 1010.5
20260506013019 12 119 0.0 0.0 0.00 0.08 0.00 94 1010.4
20260506011537 12 120 0.0 0.0 0.00 0.08 0.00 94 1010.7
20260506010053 12 120 0.0 0.0 0.00 0.08 0.00 94 1010.6
20260506004508 12 120 0.0 0.0 0.00 0.08 0.00 93 1010.4
20260506003038 13 119 0.0 0.0 0.00 0.08 0.00 93 1010.8
20260506001607 13 119 0.0 0.0 0.00 0.08 0.00 93 1010.8
20260506000005 13 120 0.0 0.0 0.00 0.08 0.00 92 1010.9
20260505234535 13 119 0.0 0.0 0.00 0.08 0.00 92 1010.7
20260505233053 13 120 0.0 0.0 0.00 0.08 0.00 92 1010.8
20260505231506 13 120 0.0 0.0 0.00 0.08 0.00 92 1010.9
20260505230043 13 120 0.0 0.0 0.00 0.08 0.00 92 1011.1
20260505224542 13 119 0.0 0.0 0.00 0.08 0.00 92 1011.3
20260505223101 13 119 0.0 0.0 0.00 0.08 0.00 92 1011.3
20260505221511 13 115 0.0 0.0 0.00 0.08 0.00 92 1011.6
20260505220031 13 121 0.0 0.0 0.00 0.08 0.00 92 1011.5
20260505214540 13 119 0.0 1.6 0.00 0.08 0.08 92 1011.7
20260505213105 13 117 0.0 0.0 0.00 0.08 0.08 92 1011.9
20260505211551 13 106 0.0 0.0 0.00 0.08 0.08 92 1011.9
20260505210006 13 112 0.0 6.4 0.00 0.08 0.08 92 1011.9
20260505204523 13 152 0.0 9.7 0.00 0.08 0.08 92 1011.8
20260505203037 13 117 0.0 4.8 0.00 0.08 0.08 92 1011.9
20260505201601 13 102 0.0 8.0 0.00 0.08 0.08 93 1012.0
20260505200019 13 132 0.0 4.8 0.00 0.08 0.08 93 1011.9
20260505194528 13 114 0.0 4.8 0.00 0.08 0.08 93 1011.9
20260505193043 13 107 0.0 4.8 0.00 0.08 0.08 93 1012.0
20260505191625 13 111 0.0 0.0 0.00 0.08 0.08 93 1011.9
20260505190015 13 114 0.0 0.0 0.00 0.08 0.08 93 1011.9